Location: Arran
(51.9410°N, 101.7372°W)
Time: 17:23:23
(UTC+00:00)

ISS - Visible Passes

Search period start: 24 January 2022 00:00
Search period end: 03 February 2022 00:00
Orbit: 413 x 422 km, 51.6° (Epoch: 24 January)

Date Brightness Start Highest point End Pass type
(mag) Time Alt. Az. Time Alt. Az. Time Alt. Az.
24 Jan -2.6 00:12:51 10° SW 00:15:53 32° SSE 00:18:38 12° E visible
24 Jan -2.8 01:49:05 10° WSW 01:51:34 46° WSW 01:51:34 46° WSW visible
25 Jan -3.7 01:01:06 10° WSW 01:04:26 69° SSE 01:05:32 38° E visible
25 Jan -0.6 02:37:50 10° W 02:38:27 15° W 02:38:27 15° W visible
26 Jan -3.4 00:13:10 10° WSW 00:16:26 56° SSE 00:19:28 12° E visible
26 Jan -3.0 01:49:48 10° W 01:52:23 51° W 01:52:23 51° W visible
27 Jan -3.8 01:01:46 10° W 01:05:06 86° S 01:06:19 37° E visible
27 Jan -0.7 02:38:31 10° W 02:39:15 15° W 02:39:15 15° W visible
28 Jan -3.7 00:13:43 10° WSW 00:17:04 80° S 00:20:15 11° E visible
28 Jan -3.1 01:50:28 10° W 01:53:11 54° W 01:53:11 54° W visible
29 Jan -3.8 01:02:25 10° W 01:05:46 84° S 01:07:08 33° E visible
29 Jan -0.7 02:39:14 10° W 02:40:04 16° W 02:40:04 16° W visible
30 Jan -3.8 00:14:20 10° W 00:17:41 88° S 00:21:02 10° E visible
30 Jan -3.0 01:51:06 10° W 01:54:03 48° SW 01:54:03 48° SW visible
31 Jan -3.5 01:03:01 10° W 01:06:20 64° SSW 01:08:06 25° ESE visible
31 Jan -0.7 02:40:07 10° W 02:41:02 15° WSW 02:41:02 15° WSW visible
01 Feb -3.6 00:14:55 10° W 00:18:16 76° S 00:21:36 10° ESE visible
01 Feb -2.2 01:51:49 10° W 01:54:46 29° SSW 01:55:09 28° SSW visible
02 Feb -2.6 01:03:37 10° W 01:06:46 39° SSW 01:09:22 14° SE visible
